User: anonymous   Login
Location: Unspecified
(0.0000°N, 0.0000°E)
Time: 14:50:44
(UTC+00:00)
Language:

CARTOSAT 2C - Orbit

View from above orbital plane
View from above orbital plane
View from above satellite
View from above satellite

Ground track
Ground track

The orbit data is extracted from the following two-line orbital elements,

1 41599U 16040A   18320.16633351  .00000471  00000-0  25458-4 0  9991
2 41599  97.3923  18.2442 0015638  74.7347  10.0185 15.19301359133143
Epoch (UTC): 16 November 2018 03:59:31
Eccentricity: 0.0015638
inclination: 97.3923°
perigee height: 497 km
apogee height: 519 km
right ascension of ascending node: 18.2442°
argument of perigee: 74.7347°
revolutions per day: 15.19301359
mean anomaly at epoch: 10.0185°
orbit number at epoch: 13314

The dashed part of the orbit path shows where the satellite is in the earth's shadow,  

DLR